STARLINK-35964

Last updated on Mon Dec 15 2025 00:02:11 GMT+0000 (Coordinated Universal Time)

1 66796U 25278F 25348.25003472 -.02328868 14827-2 -59120-2 0 9995 2 66796 42.9942 241.8418 0001811 275.6166 130.0142 15.94725878 3042
UTC large
Height (km)
Speed (km/s)
/
Latitude / Longitude
Inclination (degrees)
Orbital Period (minutes)
Azimuth
Elevation
Range (km)
Doppler Factor

Next 0 passes for location: London (51.5072 / 0.1276)

Sorry there are no passes over London.